Seattle Boeing, WA
on Tuesday, November 13, 2012

Tuesday
Previous Day Next Day
Daily Summary
 ActualAverage (KSEA)Record (KSEA)
Temperature
Mean Temperature °F 46°F  
Max Temperature 52°F 51°F 62°F (1997)
Min Temperature 46°F 41°F 14°F (1955)
Degree Days
Heating Degree Days 16 19  
Month to date heating degree days 230  
Since 1 July heating degree days 827  
Cooling Degree Days 0 0  
Month to date cooling degree days 0  
Year to date cooling degree days 189  
Moisture
Dew Point 46°F   
Average Humidity 91    
Maximum Humidity 100    
Minimum Humidity 83    
Precipitation
Precipitation 0.19 in 0.23 in 1.68 in (1966)
Month to date precipitation 2.73  
Year to date precipitation 28.30  
Snow
Snow 0.00 in in 0.40 in (1964)
Month to date snowfall  
Since 1 July snowfall  
Snow Depth in   
Wind
Wind Speed 7 mph   
Max Wind Speed 10 mph   
Max Gust Speed mph   
Visibility 9 miles   
Events Rain   

Key: T is trace of precipitation, MM is missing value
Source: NWS Daily Summary
Time(PST)TemperatureDew PointHumidity Pressure Visibility Wind DirectionWind SpeedGust SpeedPrecipitationEvents Conditions
12:07 AM 48.2°F 46.4°F 93% 30.22 in 10.0 miles SE 8.1 mph - N/A   Mostly Cloudy
12:53 AM 48.9°F 46.0°F 90% 30.22 in 10.0 miles SE 6.9 mph - N/A   Overcast
1:53 AM 48.0°F 46.0°F 93% 30.22 in 4.0 miles SE 6.9 mph - 0.01 in Rain Light Rain
2:53 AM 48.0°F 45.0°F 89% 30.20 in 10.0 miles SSE 6.9 mph - 0.01 in   Overcast
3:53 AM 48.0°F 45.0°F 89% 30.20 in 10.0 miles SE 4.6 mph - 0.02 in   Overcast
4:53 AM 46.9°F 45.0°F 93% 30.20 in 10.0 miles SE 8.1 mph - 0.02 in   Overcast
5:53 AM 48.0°F 46.0°F 93% 30.20 in 10.0 miles SSE 9.2 mph - 0.00 in   Overcast
6:14 AM 46.4°F 44.6°F 93% 30.20 in 10.0 miles SE 10.4 mph - N/A   Overcast
6:22 AM 46.4°F 46.4°F 100% 30.20 in 10.0 miles SE 9.2 mph - N/A   Overcast
6:53 AM 46.9°F 45.0°F 93% 30.19 in 10.0 miles SE 10.4 mph - N/A   Scattered Clouds
7:53 AM 46.9°F 45.0°F 93% 30.20 in 10.0 miles SE 9.2 mph - N/A   Overcast
8:53 AM 48.0°F 45.0°F 89% 30.21 in 10.0 miles SE 9.2 mph - N/A   Overcast
9:34 AM 48.2°F 46.4°F 93% 30.21 in 10.0 miles SSE 6.9 mph - N/A   Overcast
9:53 AM 50.0°F 46.0°F 86% 30.20 in 10.0 miles SSE 6.9 mph - N/A   Overcast
10:53 AM 51.1°F 46.0°F 83% 30.20 in 10.0 miles SE 3.5 mph - N/A   Overcast
11:53 AM 51.1°F 46.9°F 86% 30.18 in 10.0 miles SSE 3.5 mph - 0.01 in Rain Light Rain
12:53 PM 52.0°F 46.9°F 83% 30.17 in 10.0 miles SSW 5.8 mph - 0.00 in Rain Light Rain
1:53 PM 51.1°F 48.0°F 89% 30.16 in 6.0 miles South 4.6 mph - 0.01 in Rain Light Rain
2:53 PM 51.1°F 48.0°F 89% 30.15 in 6.0 miles SSE 4.6 mph - 0.03 in Rain Light Rain
3:53 PM 50.0°F 48.0°F 93% 30.15 in 10.0 miles SSE 4.6 mph - 0.03 in   Overcast
4:53 PM 50.0°F 48.0°F 93% 30.14 in 10.0 miles ESE 4.6 mph - 0.02 in Rain Light Rain
5:53 PM 50.0°F 48.0°F 93% 30.14 in 10.0 miles SE 5.8 mph - 0.00 in   Overcast
6:53 PM 50.0°F 46.9°F 89% 30.14 in 10.0 miles SSE 4.6 mph - 0.00 in Rain Light Rain
7:53 PM 50.0°F 46.9°F 89% 30.14 in 8.0 miles SE 4.6 mph - 0.02 in Rain Light Rain
8:53 PM 48.9°F 46.9°F 93% 30.14 in 10.0 miles SE 6.9 mph - 0.01 in   Overcast
9:53 PM 48.9°F 46.9°F 93% 30.15 in 10.0 miles ESE 4.6 mph - 0.00 in   Overcast
10:53 PM 48.9°F 46.9°F 93% 30.16 in 10.0 miles SE 3.5 mph - N/A   Overcast
11:53 PM 48.9°F 46.9°F 93% 30.18 in 9.0 miles SE 8.1 mph - 0.00 in Rain Light Rain
Moon Phase
Nov. 13 Nov. 13 Nov. 20 Nov. 28 Dec. 06
Sunrise:07:12 AM (PST) Moon Rise:06:58 AM (PST)11/13
Sunset:04:34 PM (PST) Moon Set:04:29 PM (PST)11/13

Copyright © 2014 The Weather Underground, Inc.